User: anonymous   Login
Location: Unspecified
(0.0000°N, 0.0000°E)
Time: 22:21:22
(UTC+00:00)
Language:

MTI - Orbit

View from above orbital plane
View from above orbital plane
View from above satellite
View from above satellite

Ground track
Ground track

The orbit data is extracted from the following two-line orbital elements,

1 26102U 00014A   17327.49838541  .00006155  00000-0  11660-3 0  9992
2 26102  97.5778 146.2162 0008832  56.7671 359.2542 15.48718053979165
Epoch (UTC): 23 November 2017 11:57:40
Eccentricity: 0.0008832
inclination: 97.5778°
perigee height: 414 km
apogee height: 426 km
right ascension of ascending node: 146.2162°
argument of perigee: 56.7671°
revolutions per day: 15.48718053
mean anomaly at epoch: 359.2542°
orbit number at epoch: 97916

The dashed part of the orbit path shows where the satellite is in the earth's shadow,  

DLR